[[{"header":{"parameterUnit":"m.s-1","parameterCategory":1,"la1":30.2991,"la2":30.254,"lo1":-89.0895,"lo2":-89.0444,"dy":0.0017,"dx":0.0017,"nx":28,"ny":28,"refTime":"2024-06-30T21:00:00:Z","depth":0,"parameterNumber":2,"parameterNumberName":"U-component_of_WINDS"},"data":[0,0,0,0,0,0,0,0,0,0,0,0,0,0,0,0,0,0,0,0,0,0,0,0,0,0,0,0,0,0,0,0,0,0,0,0,0,0,0,0,0,0,0,0,0,0,0,0,0,0,0,0,0,0,0,0,0,0,1.4934,1.4935,0,1.499,1.4991,1.4992,1.5008,1.5008,1.5007,1.5007,1.5067,1.5069,1.5071,0,0,0,0,0,0,0,0,0,0,0,0,0,1.4845,1.4846,1.4934,1.4935,1.4936,1.499,1.4991,1.4992,1.5008,1.5008,1.5007,1.5007,1.5066,1.5069,1.5071,0,0,0,0,0,0,0,0,0,0,0,0,0,1.4891,1.4847,1.4934,1.495,1.4952,1.499,1.4991,1.4992,1.5008,1.5008,1.5007,1.5007,1.5066,1.5068,1.5071,1.5098,0,0,1.508,1.5081,0,0,0,0,0,0,0,0,1.4888,1.4894,1.4947,1.4949,1.4952,1.4992,1.4981,1.5028,1.5008,1.4987,1.5007,1.5007,1.5043,1.5047,1.5059,1.51,1.5103,1.508,1.5082,1.5083,1.5084,0,0,0,0,0,0,0,1.4885,1.4892,1.4957,1.4948,1.4951,1.4956,1.4962,1.499,1.5017,1.4989,1.499,1.4996,1.5044,1.5056,1.506,1.5104,1.508,1.5082,1.5084,1.5085,1.5172,1.5173,0,0,0,0,0,0,1.4878,1.4889,1.4955,1.4958,1.4918,1.4958,1.4965,1.4979,1.5016,1.5022,1.4997,1.4997,1.5051,1.5057,1.5062,1.5097,1.5083,1.5086,1.5087,1.5172,1.5172,1.5173,0,0,0,0,0,0,1.4876,1.4884,1.4953,1.4924,1.4933,1.496,1.4976,1.4981,1.4993,1.5022,1.5028,1.5004,1.5051,1.5059,1.5089,1.5099,1.5087,1.5089,1.5171,1.5172,1.5173,1.5166,0,0,0,0,0,0,1.4874,1.4883,1.4893,1.4924,1.4934,1.4977,1.4977,1.4982,1.4998,1.4998,1.5031,1.5036,1.5052,1.5085,1.5092,1.5103,1.5092,1.517,1.5171,1.5172,1.5165,1.5166,1.5167,0,0,0,0,0,1.4871,1.4889,1.4893,1.4901,1.4947,1.4978,1.4984,1.5001,1.4998,1.5009,1.5028,1.5035,1.5097,1.5088,1.5096,1.5108,1.5169,1.5171,1.5172,1.5165,1.5166,1.5167,0,0,0,0,0,0,1.4859,1.4893,1.4898,1.4927,1.4949,1.498,1.4994,1.5001,1.5025,1.5025,1.5046,1.5053,1.5083,1.5098,1.5087,1.5137,1.5134,1.5137,1.5125,1.5127,1.5128,1.5124,1.5094,0,0,0,0,0,1.4859,1.488,1.491,1.4932,1.4943,1.4967,1.4981,1.4992,1.5016,1.5026,1.5047,1.5071,1.5096,1.5112,1.5137,1.5168,1.5176,1.518,1.5181,1.5182,1.5185,1.5204,1.5207,1.5177,1.5177,1.5177,0,0,1.4861,1.4882,1.4895,1.4931,1.4949,1.4972,1.4974,1.4998,1.5016,1.503,1.506,1.5076,1.5105,1.5136,1.515,1.515,1.5194,1.5184,1.5184,1.5186,1.5206,1.5208,1.5211,1.5178,1.5178,1.5178,0,0,1.4876,1.4893,1.4915,1.4933,1.4961,1.4977,1.4982,1.5012,1.5024,1.5054,1.5066,1.5087,1.513,1.515,1.5166,1.519,1.5198,1.5197,1.5203,1.5221,1.5224,1.5226,1.5236,1.5239,1.5199,1.5199,1.5199,0,1.4874,1.4908,1.4925,1.4949,1.4965,1.4978,1.5001,1.5018,1.5053,1.5065,1.5063,1.5117,1.5137,1.5174,1.518,1.5192,1.52,1.5194,1.5222,1.5224,1.5226,1.5236,1.524,1.5199,1.5199,1.5199,1.5199,0,1.4906,1.493,1.4944,1.4977,1.4995,1.5017,1.5039,1.5055,1.5065,1.5081,1.5113,1.5138,1.5168,1.5178,1.5187,1.5216,1.5215,1.5217,1.5215,1.5229,1.5238,1.5242,1.5199,1.5199,1.5199,1.5199,0,0,1.4915,1.4957,1.4962,1.4978,1.501,1.5029,1.5054,1.5083,1.5097,1.5121,1.5143,1.5179,1.5182,1.52,1.5212,1.5228,1.5247,1.5229,1.523,1.5232,1.5283,1.5281,1.5285,1.5253,1.5253,1.5254,1.5281,0,1.4934,1.4977,1.4994,1.503,1.5052,1.5066,1.5087,1.511,1.5126,1.5149,1.5167,1.5193,1.5194,1.5205,1.5221,1.5241,1.5258,1.524,1.5275,1.5276,1.5268,1.529,1.5289,1.5313,1.5284,1.5285,1.5285,0,1.4963,1.4987,1.5025,1.5056,1.5066,1.5085,1.5114,1.5135,1.5162,1.5172,1.5193,1.5205,1.5232,1.5228,1.5267,1.5254,1.5269,1.5282,1.5283,1.5288,1.5282,1.5296,1.532,1.5324,1.5291,1.5291,1.529,0,1.4967,1.5009,1.5037,1.505,1.5086,1.51,1.5116,1.5142,1.5159,1.5185,1.5196,1.5225,1.5241,1.5264,1.5283,1.5278,1.5321,1.5318,1.5332,1.5332,1.5341,1.5341,1.5369,1.535,1.5349,1.5349,1.5349,0,1.4988,1.5011,1.504,1.5057,1.5084,1.5103,1.513,1.5147,1.517,1.5192,1.5206,1.5227,1.5251,1.5275,1.5291,1.5322,1.5329,1.5339,1.5344,1.5339,1.5338,1.535,1.5349,1.535,1.535,1.535,1.535,0,1.4997,1.5017,1.5049,1.5081,1.509,1.5108,1.5136,1.5155,1.5171,1.5199,1.5207,1.5234,1.5264,1.5285,1.5324,1.5334,1.5368,1.5371,1.5359,1.5361,1.5374,1.5373,1.5413,1.542,1.5394,1.5394,1.5394,0,1.5009,1.5027,1.5061,1.5077,1.5093,1.5117,1.5135,1.5155,1.5173,1.5206,1.5221,1.5251,1.5276,1.5323,1.5347,1.5377,1.5382,1.5394,1.5387,1.5382,1.5384,1.5383,1.5386,1.5395,1.5395,1.5395,1.5395,0,1.5029,1.5039,1.5063,1.5091,1.5112,1.5135,1.5159,1.5171,1.5196,1.5216,1.5246,1.5266,1.5305,1.5336,1.5368,1.5386,1.5395,1.5397,1.5403,1.5398,1.5391,1.5397,1.5363,1.5397,1.5397,1.5396,1.5396,1.5396,1.5041,1.5059,1.5086,1.5113,1.5133,1.5155,1.5174,1.5194,1.5219,1.5252,1.5263,1.5294,1.5323,1.5367,1.5385,1.5411,1.5411,1.5418,1.542,1.5422,1.5422,1.5386,1.5417,1.5417,1.5417,1.5417,1.5417,0,1.5063,1.5082,1.5106,1.5139,1.5161,1.5168,1.5195,1.5213,1.524,1.5265,1.529,1.5326,1.5356,1.5382,1.5413,1.5429,1.5435,1.5437,1.5437,1.5441,1.542,1.5413,1.5432,1.5432,1.5432,1.5432,1.5432,1.5432,1.5077,1.5107,1.512,1.5161,1.5179,1.521,1.5225,1.5246,1.5267,1.5305,1.533,1.5347,1.5373,1.5407,1.5435,1.5443,1.5454,1.5456,1.5464,1.5444,1.5442,1.5441,1.5434,1.5458,1.5458,1.5483,1.5484,1.5484]},{"header":{"parameterUnit":"m.s-1","parameterCategory":1,"la1":30.2991,"la2":30.254,"lo1":-89.0895,"lo2":-89.0444,"dy":0.0017,"dx":0.0017,"nx":28,"ny":28,"refTime":"2024-06-30T21:00:00:Z","depth":0,"parameterNumber":3,"parameterNumberName":"V-component_of_WINDS"},"data":[0,0,0,0,0,0,0,0,0,0,0,0,0,0,0,0,0,0,0,0,0,0,0,0,0,0,0,0,0,0,0,0,0,0,0,0,0,0,0,0,0,0,0,0,0,0,0,0,0,0,0,0,0,0,0,0,0,0,-0.2258,-0.2258,0,-0.2285,-0.2286,-0.2286,-0.2319,-0.232,-0.232,-0.2321,-0.2349,-0.2349,-0.2349,0,0,0,0,0,0,0,0,0,0,0,0,0,-0.2234,-0.2234,-0.2258,-0.2258,-0.2258,-0.2285,-0.2286,-0.2286,-0.2319,-0.232,-0.2321,-0.2321,-0.2348,-0.2349,-0.2349,0,0,0,0,0,0,0,0,0,0,0,0,0,-0.2251,-0.2235,-0.2258,-0.2278,-0.228,-0.2285,-0.2286,-0.2286,-0.2319,-0.232,-0.2321,-0.2321,-0.2348,-0.2349,-0.2349,-0.2336,0,0,-0.235,-0.235,0,0,0,0,0,0,0,0,-0.225,-0.2252,-0.2275,-0.2277,-0.2279,-0.23,-0.2288,-0.2303,-0.2319,-0.2304,-0.2321,-0.2322,-0.2332,-0.2333,-0.2337,-0.2337,-0.2338,-0.235,-0.235,-0.2351,-0.2351,0,0,0,0,0,0,0,-0.2249,-0.2251,-0.2269,-0.2275,-0.2278,-0.2286,-0.229,-0.2291,-0.2313,-0.2306,-0.2308,-0.2311,-0.2333,-0.2336,-0.2338,-0.2339,-0.235,-0.2351,-0.2351,-0.2351,-0.2331,-0.233,0,0,0,0,0,0,-0.2245,-0.225,-0.2268,-0.2269,-0.2266,-0.2286,-0.229,-0.2292,-0.2313,-0.2317,-0.231,-0.2313,-0.2335,-0.2337,-0.2339,-0.2326,-0.2351,-0.2351,-0.2351,-0.2331,-0.2331,-0.233,0,0,0,0,0,0,-0.2244,-0.2246,-0.2267,-0.226,-0.2264,-0.2286,-0.2288,-0.2292,-0.2296,-0.2317,-0.2321,-0.231,-0.2336,-0.2338,-0.2337,-0.2327,-0.2351,-0.2351,-0.2332,-0.2331,-0.233,-0.2298,0,0,0,0,0,0,-0.2243,-0.2246,-0.2241,-0.226,-0.2264,-0.2264,-0.2288,-0.2292,-0.2297,-0.23,-0.2317,-0.2321,-0.2337,-0.2336,-0.2337,-0.2328,-0.2352,-0.2333,-0.2332,-0.233,-0.23,-0.2296,-0.2293,0,0,0,0,0,-0.2242,-0.223,-0.224,-0.2242,-0.2258,-0.2263,-0.2265,-0.2284,-0.2296,-0.2291,-0.2305,-0.232,-0.2328,-0.2335,-0.2337,-0.2328,-0.2334,-0.2332,-0.2331,-0.2302,-0.2297,-0.2293,0,0,0,0,0,0,-0.2209,-0.2233,-0.2244,-0.2238,-0.2248,-0.2269,-0.2263,-0.2278,-0.2285,-0.2287,-0.231,-0.2314,-0.231,-0.2319,-0.2327,-0.2317,-0.2333,-0.2332,-0.2311,-0.2307,-0.2303,-0.2301,-0.2352,0,0,0,0,0,-0.2201,-0.2203,-0.2224,-0.2216,-0.2221,-0.2241,-0.2244,-0.2258,-0.2269,-0.2273,-0.2287,-0.2297,-0.2302,-0.2305,-0.231,-0.2302,-0.2307,-0.2296,-0.2293,-0.2289,-0.2288,-0.2285,-0.2281,-0.2324,-0.2324,-0.2324,0,0,-0.2184,-0.2197,-0.2197,-0.221,-0.2219,-0.2221,-0.2245,-0.2245,-0.2247,-0.2273,-0.2273,-0.2283,-0.2297,-0.2292,-0.229,-0.2299,-0.2277,-0.2287,-0.2284,-0.2285,-0.2283,-0.2279,-0.2276,-0.2323,-0.2323,-0.2323,0,0,-0.2154,-0.2164,-0.216,-0.2169,-0.2183,-0.2197,-0.2196,-0.2214,-0.2222,-0.2222,-0.2243,-0.2245,-0.2253,-0.2262,-0.2267,-0.2242,-0.2257,-0.2243,-0.2223,-0.2221,-0.2217,-0.2214,-0.2206,-0.2203,-0.2242,-0.2241,-0.2241,0,-0.2131,-0.2135,-0.2156,-0.2156,-0.2161,-0.2185,-0.2181,-0.2189,-0.2204,-0.2208,-0.2217,-0.2228,-0.2238,-0.2237,-0.2231,-0.2234,-0.2234,-0.2241,-0.2216,-0.2214,-0.2211,-0.2204,-0.2201,-0.224,-0.224,-0.224,-0.224,0,-0.2107,-0.2109,-0.2104,-0.2119,-0.2124,-0.2121,-0.2142,-0.2144,-0.2157,-0.217,-0.217,-0.2184,-0.2193,-0.2194,-0.2206,-0.2194,-0.2199,-0.2212,-0.2229,-0.2205,-0.2199,-0.2196,-0.2237,-0.2238,-0.2238,-0.2239,0,0,-0.2057,-0.2084,-0.2082,-0.2089,-0.2107,-0.2109,-0.2108,-0.2118,-0.212,-0.213,-0.213,-0.2136,-0.2149,-0.2155,-0.2169,-0.2166,-0.2147,-0.218,-0.2181,-0.2174,-0.2136,-0.2126,-0.2123,-0.2157,-0.2157,-0.2156,-0.2135,0,-0.2032,-0.2032,-0.2051,-0.2046,-0.2049,-0.2072,-0.2072,-0.2083,-0.2095,-0.21,-0.2113,-0.2117,-0.2133,-0.2137,-0.2136,-0.215,-0.214,-0.2152,-0.2158,-0.2158,-0.2155,-0.2119,-0.2109,-0.2088,-0.2132,-0.2132,-0.2132,0,-0.2002,-0.2011,-0.2006,-0.2026,-0.2028,-0.2027,-0.2038,-0.2041,-0.2055,-0.2064,-0.2071,-0.2087,-0.2088,-0.2104,-0.2106,-0.2114,-0.2118,-0.2125,-0.2125,-0.2127,-0.2144,-0.2121,-0.2081,-0.2079,-0.2128,-0.2128,-0.2128,0,-0.1967,-0.1978,-0.1977,-0.1983,-0.2004,-0.2004,-0.2013,-0.2027,-0.2032,-0.2041,-0.2045,-0.2053,-0.2059,-0.2065,-0.2084,-0.2093,-0.2084,-0.2101,-0.2092,-0.2092,-0.209,-0.209,-0.2051,-0.2091,-0.2091,-0.2091,-0.2091,0,-0.1937,-0.1934,-0.1962,-0.1961,-0.1959,-0.198,-0.1977,-0.1988,-0.2001,-0.2003,-0.2024,-0.2026,-0.2049,-0.2054,-0.2068,-0.2069,-0.207,-0.2078,-0.2082,-0.2077,-0.2076,-0.208,-0.2082,-0.209,-0.209,-0.209,-0.209,0,-0.1898,-0.1917,-0.1917,-0.1938,-0.1944,-0.1941,-0.1959,-0.196,-0.1973,-0.1976,-0.1978,-0.1999,-0.2006,-0.2025,-0.2036,-0.2046,-0.2042,-0.2049,-0.2038,-0.204,-0.203,-0.2031,-0.1994,-0.1991,-0.2031,-0.2031,-0.2031,0,-0.1878,-0.1876,-0.1897,-0.1901,-0.1909,-0.1914,-0.1919,-0.194,-0.1945,-0.1961,-0.1959,-0.1968,-0.1976,-0.1985,-0.2002,-0.2011,-0.2019,-0.2005,-0.202,-0.2015,-0.202,-0.202,-0.202,-0.2002,-0.2001,-0.2001,-0.2,0,-0.1841,-0.1851,-0.1857,-0.1868,-0.1873,-0.1882,-0.1892,-0.1894,-0.1918,-0.1922,-0.1929,-0.1936,-0.1948,-0.1956,-0.1968,-0.1977,-0.1993,-0.1995,-0.1994,-0.1989,-0.1983,-0.1987,-0.2029,-0.1996,-0.1997,-0.1997,-0.1997,-0.1997,-0.1812,-0.1812,-0.1827,-0.1834,-0.1844,-0.1853,-0.1855,-0.1869,-0.1875,-0.1887,-0.1899,-0.1905,-0.192,-0.1937,-0.1946,-0.1951,-0.1959,-0.1957,-0.1957,-0.1956,-0.1954,-0.1981,-0.1953,-0.1953,-0.1954,-0.1954,-0.1954,0,-0.1777,-0.1788,-0.1794,-0.1808,-0.1814,-0.1828,-0.184,-0.1844,-0.1849,-0.1861,-0.1869,-0.1878,-0.1886,-0.1904,-0.1914,-0.1915,-0.1922,-0.1917,-0.1917,-0.1919,-0.1945,-0.1946,-0.191,-0.191,-0.191,-0.191,-0.191,-0.191,-0.1759,-0.176,-0.1771,-0.1777,-0.1788,-0.1795,-0.1801,-0.1809,-0.1819,-0.1828,-0.1835,-0.1847,-0.1861,-0.1873,-0.1881,-0.1886,-0.1889,-0.1882,-0.1889,-0.1913,-0.1917,-0.1921,-0.1922,-0.1882,-0.1882,-0.1863,-0.1862,-0.1862]}]]